| time (UTC) | temp C | wind direction | speed KPH | gust KPH | rain 1hr cm | rain 24hr cm | rain mn cm | humidity % | barometer mb |
| 20260508231537 | 18 | 134 | 0.0 | 9.7 | 0.00 | 0.00 | 0.00 | 61 | 1013.4 |
| 20260508230041 | 18 | 174 | 4.8 | 11.3 | 0.00 | 0.00 | 0.00 | 60 | 1013.2 |
| 20260508224548 | 18 | 141 | 3.2 | 11.3 | 0.00 | 0.00 | 0.00 | 59 | 1013.4 |
| 20260508223038 | 19 | 151 | 4.8 | 14.5 | 0.00 | 0.00 | 0.00 | 56 | 1013.5 |
| 20260508221537 | 19 | 213 | 4.8 | 9.7 | 0.00 | 0.00 | 0.00 | 56 | 1013.4 |
| 20260508220046 | 19 | 154 | 1.6 | 11.3 | 0.00 | 0.00 | 0.00 | 57 | 1013.4 |
| 20260508214543 | 20 | 134 | 4.8 | 14.5 | 0.00 | 0.00 | 0.00 | 54 | 1013.7 |
| 20260508213040 | 20 | 201 | 4.8 | 11.3 | 0.00 | 0.00 | 0.00 | 54 | 1013.2 |
| 20260508211536 | 20 | 149 | 4.8 | 14.5 | 0.00 | 0.00 | 0.00 | 53 | 1013.3 |
| 20260508210038 | 21 | 206 | 1.6 | 11.3 | 0.00 | 0.00 | 0.00 | 53 | 1013.3 |
| 20260508204537 | 20 | 186 | 3.2 | 12.9 | 0.00 | 0.00 | 0.00 | 54 | 1013.6 |
| 20260508203036 | 21 | 144 | 3.2 | 14.5 | 0.00 | 0.00 | 0.00 | 50 | 1013.4 |
| 20260508201534 | 21 | 278 | 1.6 | 12.9 | 0.00 | 0.00 | 0.00 | 51 | 1013.9 |
| 20260508200033 | 21 | 115 | 3.2 | 12.9 | 0.00 | 0.00 | 0.00 | 50 | 1014.0 |
| 20260508194531 | 20 | 111 | 11.3 | 19.3 | 0.00 | 0.00 | 0.00 | 48 | 1014.2 |
| 20260508193033 | 20 | 111 | 6.4 | 17.7 | 0.00 | 0.00 | 0.00 | 47 | 1014.7 |
| 20260508191538 | 21 | 241 | 4.8 | 14.5 | 0.00 | 0.00 | 0.00 | 47 | 1014.8 |
| 20260508190035 | 21 | 143 | 3.2 | 12.9 | 0.00 | 0.00 | 0.00 | 45 | 1014.9 |
| 20260508184531 | 20 | 127 | 6.4 | 17.7 | 0.00 | 0.00 | 0.00 | 44 | 1015.0 |
| 20260508183028 | 21 | 186 | 1.6 | 8.0 | 0.00 | 0.00 | 0.00 | 45 | 1015.1 |
| 20260508181538 | 21 | 193 | 6.4 | 16.1 | 0.00 | 0.00 | 0.00 | 43 | 1015.3 |
| 20260508180025 | 21 | 274 | 1.6 | 9.7 | 0.00 | 0.00 | 0.00 | 41 | 1015.9 |
| 20260508174524 | 20 | 246 | 1.6 | 20.9 | 0.00 | 0.00 | 0.00 | 50 | 1015.7 |
| 20260508173024 | 20 | 103 | 6.4 | 17.7 | 0.00 | 0.00 | 0.00 | 48 | 1016.1 |
| 20260508171526 | 19 | 101 | 4.8 | 12.9 | 0.00 | 0.00 | 0.00 | 48 | 1016.2 |
| 20260508170022 | 20 | 219 | 0.0 | 14.5 | 0.00 | 0.00 | 0.00 | 49 | 1016.5 |
| 20260508164520 | 20 | 94 | 3.2 | 11.3 | 0.00 | 0.00 | 0.00 | 48 | 1016.6 |
| 20260508163018 | 19 | 82 | 1.6 | 11.3 | 0.00 | 0.00 | 0.00 | 49 | 1016.8 |
| 20260508161528 | 18 | 283 | 1.6 | 9.7 | 0.00 | 0.00 | 0.00 | 51 | 1017.0 |
| 20260508160015 | 18 | 302 | 1.6 | 8.0 | 0.00 | 0.00 | 0.00 | 51 | 1017.4 |
| 20260508154515 | 18 | 207 | 1.6 | 9.7 | 0.00 | 0.00 | 0.00 | 48 | 1017.5 |
| 20260508153023 | 18 | 58 | 4.8 | 12.9 | 0.00 | 0.00 | 0.00 | 50 | 1017.6 |
| 20260508151512 | 18 | 3 | 1.6 | 6.4 | 0.00 | 0.00 | 0.00 | 50 | 1017.5 |
| 20260508150014 | 17 | 80 | 3.2 | 8.0 | 0.00 | 0.00 | 0.00 | 54 | 1017.6 |
| 20260508144512 | 17 | 168 | 0.0 | 9.7 | 0.00 | 0.00 | 0.00 | 55 | 1017.7 |
| 20260508143013 | 17 | 95 | 3.2 | 9.7 | 0.00 | 0.00 | 0.00 | 54 | 1017.9 |
| 20260508141510 | 17 | 245 | 0.0 | 8.0 | 0.00 | 0.00 | 0.00 | 54 | 1017.8 |
| 20260508140008 | 16 | 41 | 3.2 | 8.0 | 0.00 | 0.00 | 0.00 | 58 | 1017.9 |
| 20260508134510 | 16 | 289 | 1.6 | 4.8 | 0.00 | 0.00 | 0.00 | 57 | 1017.9 |
| 20260508133003 | 16 | 129 | 1.6 | 4.8 | 0.00 | 0.00 | 0.00 | 59 | 1017.9 |
| 20260508131600 | 15 | 53 | 0.0 | 4.8 | 0.00 | 0.00 | 0.00 | 68 | 1017.8 |
| 20260508130059 | 14 | 143 | 1.6 | 4.8 | 0.00 | 0.03 | 0.00 | 70 | 1017.8 |
| 20260508124555 | 14 | 153 | 0.0 | 3.2 | 0.00 | 0.03 | 0.00 | 72 | 1017.7 |
| 20260508123052 | 13 | 139 | 0.0 | 1.6 | 0.00 | 0.03 | 0.00 | 75 | 1017.6 |
| 20260508121549 | 12 | 34 | 0.0 | 3.2 | 0.00 | 0.03 | 0.00 | 78 | 1017.5 |
| 20260508120045 | 10 | 290 | 0.0 | 3.2 | 0.00 | 0.38 | 0.00 | 83 | 1017.3 |
| 20260508114541 | 10 | 200 | 0.0 | 4.8 | 0.00 | 0.38 | 0.00 | 83 | 1017.0 |
| 20260508113040 | 9 | 86 | 0.0 | 3.2 | 0.00 | 0.38 | 0.00 | 90 | 1016.7 |
| 20260508111541 | 8 | 79 | 0.0 | 6.4 | 0.00 | 0.38 | 0.00 | 92 | 1016.4 |
| 20260508110037 | 7 | 225 | 0.0 | 3.2 | 0.00 | 0.48 | 0.00 | 95 | 1016.1 |
| 20260508104535 | 6 | 264 | 0.0 | 3.2 | 0.00 | 0.48 | 0.00 | 96 | 1016.0 |
| 20260508103042 | 6 | 271 | 0.0 | 1.6 | 0.00 | 0.48 | 0.00 | 95 | 1015.7 |
| 20260508101531 | 6 | 247 | 0.0 | 1.6 | 0.00 | 0.48 | 0.00 | 96 | 1015.4 |
| 20260508100034 | 6 | 222 | 0.0 | 0.0 | 0.00 | 0.48 | 0.00 | 95 | 1015.1 |
| 20260508094527 | 7 | 222 | 0.0 | 3.2 | 0.00 | 0.48 | 0.00 | 94 | 1015.0 |
| 20260508093033 | 7 | 304 | 0.0 | 0.0 | 0.00 | 0.48 | 0.00 | 94 | 1014.9 |
| 20260508091524 | 7 | 304 | 0.0 | 0.0 | 0.00 | 0.48 | 0.00 | 94 | 1014.9 |
| 20260508090026 | 7 | 304 | 0.0 | 0.0 | 0.00 | 0.48 | 0.00 | 92 | 1014.9 |
| 20260508084520 | 8 | 304 | 0.0 | 0.0 | 0.00 | 0.48 | 0.00 | 92 | 1014.7 |
| 20260508083017 | 8 | 304 | 0.0 | 1.6 | 0.00 | 0.48 | 0.00 | 91 | 1014.8 |
| 20260508081516 | 8 | 188 | 0.0 | 0.0 | 0.00 | 0.48 | 0.00 | 89 | 1014.5 |
| 20260508080013 | 8 | 210 | 0.0 | 0.0 | 0.00 | 0.48 | 0.00 | 88 | 1014.5 |
| 20260508074510 | 8 | 210 | 0.0 | 0.0 | 0.00 | 0.48 | 0.00 | 87 | 1014.4 |
| 20260508073008 | 9 | 210 | 0.0 | 0.0 | 0.00 | 0.48 | 0.00 | 86 | 1014.1 |
| 20260508071508 | 9 | 210 | 0.0 | 0.0 | 0.00 | 0.48 | 0.00 | 86 | 1014.2 |
| 20260508070005 | 11 | 336 | 1.6 | 6.4 | 0.00 | 0.48 | 0.00 | 82 | 1014.1 |
| 20260508064503 | 11 | 340 | 0.0 | 3.2 | 0.00 | 0.48 | 0.00 | 81 | 1014.0 |
| 20260508063003 | 11 | 343 | 3.2 | 14.5 | 0.00 | 0.48 | 0.00 | 82 | 1013.9 |
| 20260508061501 | 10 | 26 | 0.0 | 1.6 | 0.00 | 0.48 | 0.00 | 83 | 1013.7 |
| 20260508060121 | 11 | 70 | 0.0 | 1.6 | 0.00 | 1.45 | 0.00 | 81 | 1013.7 |
| 20260508054640 | 11 | 35 | 0.0 | 1.6 | 0.00 | 1.45 | 0.00 | 79 | 1013.9 |
| 20260508053056 | 12 | 39 | 0.0 | 12.9 | 0.00 | 1.45 | 0.00 | 77 | 1013.9 |
| 20260508051554 | 11 | 92 | 0.0 | 3.2 | 0.00 | 1.45 | 0.00 | 78 | 1013.8 |
| 20260508050057 | 11 | 218 | 0.0 | 6.4 | 0.00 | 1.68 | 0.00 | 79 | 1013.6 |
| 20260508044553 | 12 | 239 | 0.0 | 1.6 | 0.00 | 1.68 | 0.00 | 77 | 1013.6 |
| 20260508043058 | 12 | 264 | 0.0 | 6.4 | 0.00 | 1.68 | 0.00 | 75 | 1013.5 |
| 20260508041552 | 12 | 148 | 1.6 | 9.7 | 0.00 | 1.68 | 0.00 | 74 | 1013.2 |
| 20260508040044 | 12 | 90 | 0.0 | 0.0 | 0.00 | 1.68 | 1.68 | 74 | 1013.3 |
| 20260508034549 | 12 | 6 | 0.0 | 0.0 | 0.00 | 1.68 | 1.68 | 76 | 1013.2 |
| 20260508033041 | 12 | 51 | 0.0 | 0.0 | 0.00 | 1.68 | 1.68 | 75 | 1013.3 |
| 20260508031541 | 12 | 49 | 0.0 | 0.0 | 0.00 | 1.68 | 1.68 | 75 | 1013.2 |
| 20260508030045 | 12 | 152 | 0.0 | 6.4 | 0.00 | 1.70 | 1.68 | 77 | 1013.3 |
| 20260508024544 | 12 | 269 | 3.2 | 9.7 | 0.00 | 1.70 | 1.68 | 78 | 1012.9 |
| 20260508023039 | 12 | 276 | 0.0 | 4.8 | 0.00 | 1.70 | 1.68 | 76 | 1012.8 |
| 20260508021538 | 12 | 238 | 3.2 | 8.0 | 0.00 | 1.70 | 1.68 | 76 | 1012.7 |
| 20260508020037 | 12 | 330 | 0.0 | 9.7 | 0.00 | 1.75 | 1.68 | 76 | 1012.4 |
| 20260508014539 | 12 | 251 | 3.2 | 8.0 | 0.00 | 1.75 | 1.68 | 75 | 1012.2 |
| 20260508013035 | 12 | 117 | 0.0 | 3.2 | 0.00 | 1.75 | 1.68 | 75 | 1012.0 |
| 20260508011532 | 13 | 224 | 0.0 | 6.4 | 0.00 | 1.75 | 1.68 | 72 | 1011.9 |
| 20260508010045 | 13 | 207 | 0.0 | 12.9 | 0.00 | 2.11 | 1.68 | 71 | 1011.5 |
| 20260508004630 | 13 | 18 | 1.6 | 11.3 | 0.00 | 2.11 | 1.68 | 71 | 1011.3 |
| 20260508003028 | 13 | 263 | 0.0 | 8.0 | 0.00 | 2.11 | 1.68 | 71 | 1011.1 |
| 20260508001529 | 14 | 332 | 6.4 | 19.3 | 0.00 | 2.11 | 1.68 | 70 | 1010.8 |
| 20260508000025 | 14 | 306 | 8.0 | 25.7 | 0.00 | 2.29 | 1.68 | 69 | 1010.5 |
| 20260507234523 | 15 | 258 | 6.4 | 27.4 | 0.00 | 2.29 | 1.68 | 67 | 1010.2 |
| 20260507233021 | 15 | 37 | 6.4 | 32.2 | 0.00 | 2.29 | 1.68 | 67 | 1010.0 |